Location: Unspecified
(0.0000°N, 0.0000°E)
Time: 03:04:27
(UTC+00:00)

Vanguard 1 Rocket - Pass Details

Date: 19 March 2018
Orbit: 652 x 4225 km, 34.3° (Epoch: 16 July)

Event Time Altitude Azimuth Distance (km) Brightness Sun altitude
Rises 03:05:18 0° 282° (WNW) 7,985 - -45.6°
Reaches altitude 10° 03:11:19 10° 275° (W) 7,225 - -44.1°
Exits shadow 03:31:32 37° 225° (SW) 5,331 10.8 -39.1°
Maximum altitude 03:34:13 38° 214° (SW) 5,216 10.8 -38.4°
Drops below altitude 10° 03:53:09 10° 150° (SSE) 5,955 11.8 -33.7°
Sets 03:57:37 0° 141° (SE) 6,520 12.3 -32.6°
